Location: Katowice
(50.2611°N, 19.0242°E)
Time: 18:22:24
(UTC+02:00)

Explorer 7 - Pass Details

Date: 03 September 2019
Orbit: 485 x 680 km, 50.3° (Epoch: 22 October)

Event Time Altitude Azimuth Distance (km) Brightness Sun altitude
Rises 12:29:00 0° 283° (WNW) 2,978 10.4 47.2°
Reaches altitude 10° 12:32:07 10° 263° (W) 2,030 9.9 47.2°
Maximum altitude 12:35:02 16° 225° (SW) 1,606 9.9 47.3°
Drops below altitude 10° 12:37:50 10° 186° (S) 1,949 10.6 47.3°
Sets 12:40:45 0° 165° (SSE) 2,804 11.1 47.3°
